Temperature
7 6 6 6 6 5 5 4 3 3 3 4 3 4 4 3 3 3 3 3 3 3 3 3 3 3 3 3 3 3 3 3 3 3 3 3 3 4
6 6 6 5 5 5 4 4 3 2 2 3 3 3 3 3 3 2 3 3 3 3 2 2 2 2 2 2 2 2 2 2 2 2 2 3 3 3
6 6 5 5 5 4 4 3 3 2 2 2 2 2 2 2 2 2 2 2 2 2 2 2 2 2 1 1 2 2 2 2 2 2 2 2 2 2
5 5 5 5 4 4 3 3 2 2 1 1 2 1 1 1 1 1 1 1 1 1 1 1 1 1 1 1 1 1 1 1 1 1 1 1 2 2
5 5 4 4 3 3 3 2 2 1 1 1 1 1 1 0 1 1 1 1 1 1 1 1 1 1 1 0 1 1 1 1 1 1 1 1 1 1
4 4 4 3 3 2 2 2 1 1 1 0 0 0 0 -0 -0 -0 0 0 0 0 0 0 0 0 0 0 0 0 0 0 0 0 0 0 0 1
3 3 3 2 2 2 1 1 1 0 0 0 -0 -0 -1 -1 -1 -1 -1 -1 -0 -1 -0 -0 -0 -0 -0 -0 -0 0 -0 -0 -0 -0 -0 -0 -0 0
3 2 2 2 1 1 1 0 -0 -0 -0 -1 -1 -1 -1 -2 -2 -2 -2 -2 -2 -1 -2 -1 -1 -1 -1 -1 -1 -1 -1 -1 -1 -1 -1 -1 -1 -1
2 2 1 1 1 0 0 -0 -0 -1 -1 -1 -1 -2 -2 -2 -2 -3 -3 -3 -3 -2 -3 -2 -2 -2 -1 -1 -1 -1 -1 -1 -1 -1 -1 -1 -1 -1
1 1 0 0 -0 -0 -1 -1 -1 -1 -1 -2 -2 -2 -2 -2 -3 -3 -3 -3 -3 -3 -3 -3 -3 -2 -2 -1 -1 -1 -2 -2 -2 -2 -1 -1 -1 -1
0 -0 -1 -1 -1 -1 -1 -1 -1 -1 -2 -2 -2 -2 -2 -2 -3 -3 -3 -4 -4 -3 -3 -4 -4 -4 -3 -2 -2 -2 -2 -2 -2 -2 -2 -2 -2 -2
-1 -1 -1 -1 -2 -2 -2 -2 -2 -2 -2 -2 -2 -2 -2 -2 -3 -3 -4 -4 -5 -4 -4 -5 -5 -5 -5 -3 -3 -2 -2 -2 -2 -2 -2 -2 -2 -2
-1 -1 -2 -2 -2 -2 -2 -3 -3 -3 -3 -3 -2 -3 -3 -3 -3 -3 -4 -4 -5 -5 -5 -5 -5 -5 -6 -6 -4 -3 -3 -3 -3 -3 -3 -2 -2 -3
-2 -2 -2 -2 -3 -3 -3 -3 -3 -3 -3 -3 -3 -3 -3 -3 -3 -4 -4 -4 -4 -5 -5 -5 -5 -5 -6 -6 -5 -4 -3 -3 -3 -3 -3 -3 -3 -3
-3 -3 -3 -3 -3 -3 -3 -3 -3 -3 -4 -4 -4 -4 -4 -4 -4 -4 -4 -4 -4 -4 -4 -5 -5 -6 -6 -6 -5 -5 -4 -4 -4 -4 -4 -3 -3 -3
-3 -3 -3 -3 -3 -3 -3 -4 -4 -4 -4 -5 -5 -5 -4 -4 -4 -4 -4 -4 -4 -4 -4 -5 -5 -5 -5 -5 -5 -5 -5 -5 -4 -4 -4 -4 -4 -3
-4 -4 -4 -4 -4 -4 -4 -4 -4 -4 -5 -5 -5 -5 -5 -5 -5 -5 -5 -5 -5 -5 -5 -5 -5 -5 -5 -5 -5 -5 -5 -5 -5 -5 -4 -4 -4 -3
-4 -4 -4 -4 -5 -5 -5 -4 -5 -5 -5 -5 -5 -5 -5 -6 -5 -5 -6 -6 -6 -6 -5 -6 -6 -5 -5 -5 -5 -5 -5 -5 -5 -5 -5 -5 -4 -4
-4 -5 -5 -5 -5 -5 -5 -5 -5 -5 -6 -6 -6 -6 -6 -6 -6 -6 -6 -6 -6 -6 -6 -6 -6 -7 -7 -7 -6 -5 -6 -6 -5 -5 -5 -5 -5 -4
-5 -5 -5 -5 -5 -5 -5 -6 -6 -6 -6 -6 -6 -6 -6 -6 -6 -6 -6 -6 -6 -6 -6 -6 -6 -7 -7 -7 -7 -6 -6 -6 -6 -5 -5 -5 -5 -4
-5 -5 -5 -6 -6 -6 -6 -6 -6 -6 -6 -6 -6 -6 -6 -7 -7 -7 -7 -7 -7 -7 -7 -7 -7 -7 -7 -7 -7 -6 -5 -5 -6 -6 -5 -5 -5 -5
-6 -6 -6 -6 -6 -6 -6 -6 -6 -6 -6 -6 -7 -7 -7 -7 -7 -7 -7 -7 -7 -7 -7 -7 -7 -7 -7 -7 -7 -7 -6 -5 -5 -5 -5 -5 -6 -6
-6 -6 -6 -6 -6 -6 -7 -7 -7 -7 -7 -7 -7 -7 -7 -7 -7 -7 -7 -7 -7 -7 -7 -7 -7 -7 -7 -7 -7 -7 -6 -6 -5 -5 -5 -5 -5 -5
Wind_Speed
2 2 2 2 2 2 2 3 4 7 8 5 3 4 6 7 11 10 11 16 18 19 19 20 20 20 20 21 21 22 21 21 21 21 22 22 22 22
2 1 2 2 2 2 2 3 3 5 8 5 5 5 7 9 13 12 12 17 18 19 20 19 19 20 20 21 21 22 22 21 21 21 22 22 22 22
2 2 3 3 3 2 2 2 3 4 8 8 6 5 6 7 9 10 11 11 13 18 19 19 19 20 20 21 21 21 22 21 21 21 21 21 21 21
2 2 3 3 3 3 3 3 4 5 6 9 8 6 7 7 8 8 10 11 12 16 19 19 19 20 20 20 21 21 21 20 20 20 20 20 21 21
2 3 3 3 4 4 4 5 5 5 5 7 9 7 7 6 7 8 9 8 11 14 16 17 18 20 20 20 21 21 21 20 20 20 20 20 20 20
2 3 3 4 5 5 5 5 5 5 6 6 8 8 7 6 6 7 8 7 9 10 12 14 17 19 19 20 21 21 20 19 19 19 19 18 18 19
2 3 4 5 6 6 5 5 5 5 6 6 7 8 7 6 7 6 9 9 9 6 7 9 11 10 12 17 19 19 19 19 18 18 18 17 17 17
3 3 4 5 6 8 9 10 8 7 7 7 7 8 9 8 7 8 8 9 8 4 6 10 8 9 9 11 17 19 19 19 18 17 17 17 17 17
3 4 4 5 7 5 8 10 10 11 11 9 9 9 9 9 9 9 8 9 10 8 8 10 7 9 9 13 19 19 19 18 17 17 17 17 18 18
3 3 4 6 6 7 6 6 7 8 9 8 8 9 9 9 9 9 9 9 9 7 5 8 7 8 10 11 17 18 17 17 18 18 17 17 17 18
3 4 5 6 9 10 7 6 8 8 9 11 12 12 14 14 11 6 7 7 9 7 4 5 6 9 9 8 11 15 16 17 18 18 17 18 18 17
3 4 7 8 10 11 6 6 8 8 7 8 9 10 10 10 12 7 6 7 7 6 3 4 6 6 6 5 5 8 11 15 18 18 18 18 17 11
4 4 5 10 11 11 9 6 9 9 7 7 7 7 6 6 6 6 6 6 7 6 5 4 5 5 6 7 6 6 7 8 10 12 14 16 15 12
4 5 6 10 11 11 8 9 11 9 5 5 6 6 6 6 6 6 8 8 8 9 9 7 6 7 8 10 8 6 6 7 8 8 8 12 13 14
5 7 9 10 10 8 8 10 8 5 4 5 6 6 6 6 6 6 6 7 7 8 9 9 7 7 7 8 8 8 9 8 6 6 7 7 7 7
5 6 8 8 7 7 7 6 4 4 5 5 6 5 5 5 5 5 5 5 5 6 6 8 8 7 7 8 8 9 8 6 7 8 8 8 7 6
4 3 3 4 4 4 4 4 4 4 5 4 5 5 5 5 5 4 4 4 5 6 7 5 6 6 6 7 7 8 8 8 8 8 8 8 7 6
4 3 4 4 5 5 5 5 5 5 5 5 5 5 5 6 6 5 4 4 5 6 6 6 6 6 4 4 6 7 6 7 8 8 7 7 8 7
3 3 4 4 5 5 5 5 5 5 5 4 5 5 5 5 5 5 5 5 5 6 6 5 5 5 7 8 5 5 6 8 8 7 6 6 7 8
2 4 4 5 5 5 5 5 5 5 5 5 5 4 4 5 5 5 5 5 6 6 6 5 5 5 6 7 7 8 10 7 7 7 7 6 6 8
4 4 4 5 5 5 5 5 5 5 5 5 4 5 4 4 5 5 5 7 6 5 6 6 6 9 6 4 5 6 6 9 8 6 7 6 6 5
4 5 5 5 5 5 5 5 5 4 4 4 4 4 4 4 5 5 5 5 5 5 6 6 7 6 3 4 6 7 7 8 9 11 9 6 4 3
5 5 5 5 5 5 4 4 5 5 4 4 4 4 4 4 4 4 5 5 5 5 6 6 5 4 4 4 4 5 7 8 7 7 7 10 9 7
Wind_Direction
219 230 254 268 261 252 248 243 261 288 290 282 290 303 320 315 312 316 314 312 313 312 310 308 307 305 303 302 300 299 296 293 291 289 287 286 284 282
227 230 262 272 275 271 260 264 254 260 278 283 284 295 309 312 312 315 310 310 310 310 309 307 306 306 304 302 301 299 296 294 291 288 286 285 283 283
267 259 272 277 281 285 279 272 269 262 274 287 286 293 293 299 310 311 308 306 306 305 305 306 306 305 305 303 301 299 297 295 293 289 287 287 285 284
261 268 277 286 283 283 279 274 274 269 270 285 293 295 291 295 298 298 307 305 302 302 304 304 304 304 305 304 304 302 300 297 295 292 289 288 287 283
260 265 277 278 279 279 277 276 277 283 273 276 286 289 290 295 300 297 295 296 302 303 304 304 304 305 305 305 304 303 300 297 294 292 290 289 288 286
277 274 277 272 271 275 279 277 281 284 282 281 286 291 292 295 297 301 305 302 302 306 304 304 305 305 305 305 305 303 301 299 296 294 291 289 287 286
295 289 285 291 290 290 291 285 287 286 289 290 290 294 295 303 301 298 300 304 300 292 301 303 303 300 303 303 304 304 301 300 298 295 292 290 288 286
290 298 300 300 301 303 302 299 293 288 287 285 287 288 290 291 293 296 297 304 303 300 307 302 300 297 299 300 303 305 305 305 301 296 293 292 290 288
286 294 303 304 306 295 295 299 296 293 289 282 281 282 285 285 288 289 289 290 288 295 303 295 296 296 299 301 304 306 306 307 307 305 299 295 292 288
288 282 286 289 290 293 291 295 292 290 286 283 274 276 279 280 276 280 286 290 285 283 279 284 293 295 300 299 302 305 306 307 308 307 304 302 299 295
289 287 288 285 295 304 304 299 299 296 297 296 293 293 294 294 294 293 293 296 297 295 271 272 292 302 297 289 294 303 307 309 309 308 306 303 300 298
297 294 297 300 302 307 303 295 295 295 300 304 303 302 298 297 298 284 276 283 291 291 276 283 292 313 306 284 285 296 302 306 309 309 307 304 303 300
295 299 297 305 307 308 307 295 293 301 300 298 299 298 298 294 290 283 268 262 273 275 279 287 290 294 286 297 298 292 293 299 304 305 307 305 305 301
291 290 292 303 307 309 308 306 310 315 307 301 301 299 300 298 295 292 285 273 263 267 276 277 279 289 293 295 298 298 298 300 300 298 301 306 305 304
289 293 301 308 311 309 308 312 316 311 302 299 298 298 297 295 297 301 297 292 287 281 280 276 275 282 283 286 291 297 305 306 300 300 305 304 300 299
303 302 309 311 311 309 310 313 312 299 297 291 296 297 300 302 300 301 303 309 307 302 292 286 277 275 286 287 287 294 300 299 306 307 307 304 303 300
310 310 314 313 313 311 310 308 305 303 304 299 299 305 307 306 305 305 301 307 302 305 311 310 302 289 278 282 289 293 299 301 302 306 309 307 306 304
323 309 302 301 300 302 306 309 306 303 302 301 300 301 305 307 308 310 307 305 304 303 304 309 321 325 320 292 266 283 296 301 307 309 307 307 312 316
320 302 298 298 298 298 299 299 301 302 300 298 297 298 300 304 306 307 308 309 306 305 307 309 313 317 320 318 305 290 299 307 310 313 310 306 307 312
304 297 297 298 297 294 293 295 296 300 299 297 294 294 295 298 303 305 307 305 307 310 314 316 315 312 305 302 302 304 308 304 307 311 313 310 306 308
302 297 294 294 293 291 288 289 290 290 291 294 294 296 296 298 302 304 305 307 310 311 313 313 305 308 300 298 303 310 315 320 316 311 313 317 322 332
298 297 298 294 292 290 288 289 291 290 290 290 290 292 292 293 296 303 305 305 305 304 305 307 311 318 319 312 311 314 320 328 336 339 336 327 322 326
297 297 296 295 292 289 286 286 287 288 288 288 290 290 291 294 296 299 303 303 303 305 311 316 321 322 319 314 315 319 324 330 338 346 348 353 353 343
Height
1495 1495 1494 1493 1492 1491 1490 1488 1486 1480 1476 1475 1474 1472 1470 1467 1465 1462 1459 1456 1453 1450 1447 1444 1442 1439 1437 1434 1432 1430 1428 1426 1424 1422 1421 1420 1419 1418
1491 1490 1489 1488 1487 1486 1485 1484 1482 1479 1473 1469 1468 1467 1464 1461 1459 1456 1453 1450 1447 1444 1441 1438 1435 1432 1429 1427 1425 1422 1420 1418 1416 1414 1413 1411 1411 1410
1486 1486 1485 1484 1482 1481 1480 1478 1476 1474 1469 1464 1463 1461 1458 1455 1452 1450 1447 1443 1440 1437 1434 1431 1428 1425 1423 1420 1417 1415 1412 1410 1408 1406 1404 1403 1402 1401
1482 1481 1480 1479 1477 1476 1474 1472 1470 1468 1465 1460 1456 1454 1452 1449 1446 1443 1440 1437 1434 1430 1427 1424 1421 1419 1416 1413 1410 1407 1404 1402 1399 1397 1396 1395 1394 1393
1477 1476 1475 1474 1472 1470 1468 1466 1464 1462 1460 1456 1451 1449 1446 1444 1440 1437 1434 1431 1428 1424 1421 1418 1415 1412 1409 1405 1402 1399 1396 1394 1391 1389 1388 1386 1385 1384
1472 1471 1470 1468 1467 1465 1463 1461 1459 1456 1454 1451 1447 1443 1440 1438 1435 1431 1426 1424 1421 1418 1415 1411 1408 1405 1402 1399 1395 1392 1389 1386 1383 1382 1380 1379 1377 1376
1467 1466 1465 1464 1462 1460 1458 1456 1454 1451 1448 1445 1442 1438 1435 1432 1429 1425 1421 1417 1414 1412 1408 1405 1402 1398 1395 1392 1388 1384 1381 1379 1376 1374 1372 1371 1370 1369
1462 1461 1460 1458 1457 1455 1453 1451 1449 1446 1443 1440 1437 1433 1430 1427 1424 1421 1417 1412 1407 1406 1403 1398 1396 1392 1388 1385 1382 1378 1375 1372 1370 1367 1365 1364 1362 1361
1457 1456 1454 1453 1451 1449 1447 1445 1443 1441 1439 1436 1432 1428 1425 1422 1419 1416 1412 1409 1404 1401 1398 1391 1390 1385 1382 1379 1376 1373 1370 1367 1364 1361 1359 1357 1355 1353
1453 1451 1449 1447 1446 1444 1441 1439 1436 1434 1432 1430 1427 1423 1420 1417 1414 1411 1408 1403 1399 1397 1394 1387 1383 1379 1376 1373 1370 1367 1364 1361 1358 1355 1352 1350 1348 1346
1448 1447 1445 1443 1441 1439 1436 1433 1430 1428 1426 1424 1421 1418 1415 1412 1409 1406 1402 1398 1393 1390 1389 1384 1378 1373 1368 1366 1364 1362 1358 1355 1352 1349 1346 1344 1341 1339
1443 1442 1440 1438 1436 1434 1432 1428 1425 1422 1420 1417 1415 1412 1409 1406 1404 1401 1398 1394 1390 1385 1383 1381 1375 1371 1363 1358 1357 1355 1353 1349 1346 1343 1340 1337 1335 1332
1439 1437 1435 1434 1431 1429 1427 1424 1421 1418 1414 1411 1409 1406 1403 1401 1398 1396 1393 1390 1386 1383 1380 1377 1373 1369 1365 1357 1352 1350 1348 1344 1341 1337 1335 1331 1329 1326
1435 1433 1431 1429 1427 1424 1422 1419 1416 1413 1410 1407 1404 1401 1398 1396 1393 1390 1388 1385 1383 1379 1376 1374 1370 1366 1361 1355 1349 1344 1342 1340 1336 1332 1329 1326 1323 1320
1431 1429 1427 1425 1422 1419 1417 1414 1411 1408 1405 1402 1399 1397 1394 1391 1388 1385 1382 1380 1378 1375 1372 1369 1366 1362 1358 1353 1347 1342 1338 1334 1331 1328 1324 1321 1317 1314
1427 1425 1423 1420 1418 1415 1412 1409 1407 1404 1401 1398 1395 1393 1390 1387 1384 1381 1378 1375 1371 1369 1368 1365 1361 1357 1353 1349 1345 1339 1336 1332 1328 1324 1320 1316 1313 1310
1423 1420 1417 1415 1412 1410 1407 1405 1402 1400 1397 1395 1392 1389 1386 1383 1380 1378 1374 1371 1368 1364 1361 1359 1357 1353 1349 1345 1341 1337 1333 1329 1325 1321 1316 1311 1308 1306
1419 1416 1413 1411 1408 1406 1403 1401 1399 1396 1394 1391 1388 1385 1382 1379 1377 1374 1371 1368 1365 1361 1358 1355 1351 1347 1344 1340 1339 1334 1330 1326 1322 1318 1314 1309 1304 1302
1415 1412 1410 1407 1405 1402 1400 1397 1395 1393 1390 1388 1385 1382 1380 1377 1374 1371 1368 1365 1362 1359 1356 1353 1350 1346 1341 1336 1334 1333 1329 1323 1319 1315 1311 1308 1303 1299
1411 1409 1406 1404 1402 1399 1397 1394 1392 1389 1387 1385 1382 1379 1377 1374 1371 1368 1365 1363 1359 1356 1353 1351 1348 1345 1342 1338 1332 1328 1327 1323 1317 1313 1309 1305 1302 1298
1407 1405 1403 1401 1398 1396 1393 1391 1389 1386 1384 1381 1379 1376 1374 1371 1368 1366 1363 1360 1358 1354 1351 1348 1346 1344 1340 1336 1332 1327 1324 1321 1317 1313 1308 1303 1300 1296
1404 1402 1399 1397 1395 1392 1390 1388 1385 1383 1380 1378 1375 1373 1371 1368 1366 1363 1361 1358 1355 1352 1349 1347 1344 1341 1338 1334 1330 1326 1322 1318 1315 1312 1308 1305 1302 1297
1400 1398 1396 1393 1391 1389 1387 1384 1382 1379 1377 1375 1372 1370 1368 1366 1364 1361 1359 1356 1353 1350 1348 1345 1342 1339 1337 1334 1330 1326 1322 1318 1314 1310 1307 1305 1302 1300